Regional Weather Roundup
Issued by NWS

Home | Current Version | Previous Version | Graphics & Text | Print | Product List | Glossary On
Versions: 1 2 3 4 5 6 7 8 9 10 11 12 13 14 15 16 17 18 19 20 21 22 23 24 25 26 27 28 29 30 31 32 33 34 35 36 37 38 39 40 41 42 43 44 45 46 47 48 49 50
000
ASUS45 KTFX 240519
RWRMT
MONTANA HOURLY WEATHER ROUNDUP
NATIONAL WEATHER SERVICE GREAT FALLS MT
1019 PM MST SUN NOV 23 2014

NOTE: "FAIR" INDICATES FEW OR NO CLOUDS BELOW 12000 FEET WITH NO
SIGNIFICANT WEATHER AND/OR OBSTRUCTIONS TO VISIBILITY.

* THESE STATIONS ARE NOT UNDER NWS QUALITY CONTROL. THEY DO NOT
   REPORT WEATHER SUCH AS PRECIPITATION OR FOG.

MTZ001>007-043-240600-
WEST OF THE DIVIDE
CITY           SKY/WX    TMP DP  RH WIND       PRES   REMARKS
KALISPELL      CLOUDY    34  34 100 CALM      29.94R
MISSOULA       MOCLDY    32  30  92 E3        30.00R
BUTTE          CLOUDY    30  19  64 W7        29.92R WCI  23
MULLAN PASS    FOG       27  23  85 VRB5G20   29.96R WCI  21
* ESSEX        N/A       31  30  96 NW1        N/A
* EUREKA APT   PTCLDY    34  28  79 CALM      29.95R
* HAMILTON APT MOCLDY    36  27  70 SE6       30.02R WCI  31
* LIBBY APT    MOCLDY    32  30  92 CALM      30.00R
* LINCOLN      N/A       30  26  85 SW3G8      N/A
* LOOKOUT PASS N/A       29  29 100 E4G9       N/A
* POLSON       N/A       29  29 100 S1         N/A
* RONAN APT    MOCLDY    34  30  85 SE5        N/A   WCI  29
* SEELEY LAKE  N/A       31  28  89 N1G11      N/A
* THOMP F APT  MOCLDY    23  13  65 NE2        N/A
* YAAK HILL    N/A       32  30  92 NE2        N/A
$$

MTZ008-052>055-240600-
SOUTHWEST MONTANA
CITY           SKY/WX    TMP DP  RH WIND       PRES   REMARKS
BOZEMAN        CLOUDY    36  19  50 W8        29.90S WCI  30
DILLON         CLOUDY    30  23  75 SW20      29.96S WCI  17
* W YELLOWSTON CLOUDY    24  22  92 SW4G14     N/A
* ENNIS APT    CLOUDY    34  18  52 S6         N/A   WCI  29
* THREE FORKS  CLOUDY    36  21  54 W6         N/A   WCI  31
* BOULDER HILL N/A       28  20  72 S3         N/A
* MONIDA PASS  N/A       22  12  65 SE10       N/A   WCI  11
* RAYNOLDS PAS N/A       23   9  55 S8         N/A   WCI  14
* WHITEHALL    N/A       36  19  50 SW12G19    N/A   WCI  28
* WISE RIVER   N/A       28  21  75 W14G22     N/A   WCI  17
$$

MTZ009>010-012-014-046-048-049-054-240600-
EAST SLOPES AND CENTRAL MONTANA
CITY           SKY/WX    TMP DP  RH WIND       PRES   REMARKS
CUT BANK       PTCLDY    30  23  75 W12       29.75R WCI  20
GREAT FALLS    CLOUDY    37  23  57 SW15      29.78R WCI  28
HELENA         MOCLDY    36  25  64 W24G31    29.86R WCI  24
MALMSTROM AFB  CLOUDY    37  23  57 SW15      29.80R WCI  28
* CONRAD       CLOUDY    39  25  57 SW12       N/A   WCI  32
* DEARBORN     N/A       40  23  51 S4G13      N/A
* EAST GLACIER N/A       31  19  61 W9G22      N/A   WCI  23
* MONARCH      N/A       31  16  54 SW11       N/A   WCI  22
* PENDROY      N/A       35  19  52 NW18G25    N/A   WCI  24
* ROGERS PASS  N/A       27  23  85 E14G26     N/A   WCI  16
* SAINT MARY   N/A       32  26  79 S7G19      N/A   WCI  25
* SWEET GRASS  N/A       31  23  72 W19G24     N/A   WCI  19
* WHITE SULPH  N/A       34  18  52 SW6G14     N/A   WCI  29
$$

MTZ011-013-016-021-035-040-045-047-050-051-240600-
NORTH CENTRAL MONTANA
CITY           SKY/WX    TMP DP  RH WIND       PRES   REMARKS
HAVRE          CLOUDY    36  27  70 SW7       29.74S WCI  30
LEWISTOWN      CLOUDY    37  21  52 SW13      29.77S WCI  29
* N BAR RANCH  CLOUDY    34  25  70 W12G24    29.78S WCI  25
* CHINOOK      CLOUDY    28  25  89 E3        29.75S
* FORT BENTON  CLOUDY    43  23  45 SW13G18   29.78R
* CHESTER      N/A       34  23  64 W4         N/A
* DENTON       N/A       39  22  51 W20G27     N/A   WCI  29
* GEYSER       N/A       37  19  48 SW22G28    N/A   WCI  26
* JUDITH GAP   N/A       35  21  57 NW10G17    N/A   WCI  27
* LOMA         N/A       41  24  51 SW12       N/A
$$

MTZ017>020-022>027-061-062-240600-
NORTHEAST MONTANA
CITY           SKY/WX    TMP DP  RH WIND       PRES   REMARKS
GLASGOW        CLEAR     16  10  77 SE3       29.80F
GLENDIVE       CLEAR     12   9  88 W7        29.81F WCI   1
JORDAN         PTCLDY    18  14  84 SE3       29.79F
SIDNEY         FAIR      12   1  61 NW5       29.84S WCI   4
WOLF POINT     CLEAR     12   9  88 NW5       29.84S WCI   4
* BEAVER HILL  N/A       13  12  96 NW8        N/A   WCI   2
* CIRCLE       N/A       17  15  92 N/A        N/A
* LINDSAY DVD  N/A       14  12  92 NW12       N/A
* NAVAJO       N/A       16  14  92 NW5        N/A   WCI   8
* PLENTYWOOD A PTCLDY     9   7  91 NW3       29.81S
* POPLAR APT   CLEAR     16  10  77 N/A       29.83S
* SACO         N/A       16  13  88 E6         N/A   WCI   7
* SCOBEY APT   PTCLDY     7  -2  66 N/A        N/A
$$

MTZ028>042-056>058-240600-
SOUTHCENTRAL AND SOUTHEAST MONTANA
CITY           SKY/WX    TMP DP  RH WIND       PRES   REMARKS
BAKER          CLEAR     18  16  92 W13       29.78S WCI   5
BILLINGS       CLOUDY    36  18  48 SW10      29.83F WCI  29
LIVINGSTON     CLOUDY    34  25  70 SW30G45   29.85F WCI  20
MILES CITY     CLEAR     21  18  88 N6        29.82R WCI  13
* BIG TIMBER A MOCLDY    32  25  75 SW32G41   29.80F WCI  17
* FORSYTH APT  PTCLDY    30  19  64 S3        29.81F
* LAUREL APT   CLOUDY    36  14  40 N/A        N/A
* ALZADA       N/A       27  21  78 W7         N/A   WCI  19
* HYSHAM       N/A       32  13  45 NW2        N/A
* LAME DEER    N/A       30  15  54 NW9        N/A   WCI  22
* REED POINT   N/A       40  18  41 W22G32     N/A   WCI  30
* ROSCOE HILL  N/A       34   5  29 W6G11      N/A   WCI  29
$$

REGIONAL REPORTS...DAKOTAS
CITY           SKY/WX    TMP DP  RH WIND       PRES   REMARKS
WILLISTON      PTCLDY    12   9  88 NW7       29.82S WCI   1
DICKINSON      PTCLDY    18  12  77 NW14      29.73R WCI   4
BEACH          MOCLDY    14  12  92 NW8       29.79S WCI   3
CROSBY         FAIR      10   9  96 NW7       29.82R WCI  -1
TIOGA          PTCLDY     9   9 100 N9        29.81R WCI  -4
BISMARCK       CLOUDY    19  12  74 NW12G24   29.72R WCI   6
GRAND FORKS    LGT SNOW  16  12  84 N17G30    29.60S
FARGO          LGT SNOW  19  14  81 NW22      29.58S WCI   2
BUFFALO SD     PTCLDY    19  16  88 W15       29.69R WCI   5
RAPID CITY     CLOUDY    34  19  54 NW30G36   29.72R WCI  20
$$

REGIONAL REPORTS...WYOMING/IDAHO/WASHINGTON
CITY           SKY/WX    TMP DP  RH WIND       PRES   REMARKS
SHERIDAN       CLOUDY    36  18  48 NW8       29.82F WCI  30
CODY           MOCLDY    34  18  52 W10G23    29.84S WCI  26
YELLOWSTONE LA CLOUDY    19  16  88 VRB5      29.93S WCI  12
SALMON         CLOUDY    30  28  92 N6        30.05F WCI  24
MULLAN PASS    FOG       27  23  85 VRB5G20   29.96S WCI  21
SAND POINT     CLOUDY    37  36  96 S3        30.05R
SPOKANE        CLEAR     34  28  79 SW7       30.09R WCI  28
$$

REGIONAL REPORTS...ALBERTA
CITY           SKY/WX    TMP DP  RH WIND       PRES   REMARKS
CALGARY        FAIR      32  14  47 NW8       29.77R WCI  25
LETHBRIDGE     CLOUDY    36  23  59 W21G31    29.76R WCI  25
MEDICINE HAT   CLOUDY    34  28  79 SW10      29.71R WCI  26
EDMONTON       MOCLDY    25  25 100 VRB2      29.74R
WATERTON GATE  N/A       36  18  48 W17G29     N/A   WCI  26
CARDSTON       N/A       36  21  54 W15G23     N/A   WCI  27
MILK RIVER     N/A       37  23  57 NW26G37    N/A   WCI  25
$$

REGIONAL REPORTS...SASKATCHEWAN
CITY           SKY/WX    TMP DP  RH WIND       PRES   REMARKS
SWIFT CURRENT  MOCLDY    14  12  92 S9        29.75R WCI   2
REGINA         CLOUDY    10   7  88 W3        29.84R
VAL MARIE      N/A       12  10  92 E2         N/A
ASSINIBOIA     N/A        9   5  84 SW2        N/A

$$




USA.gov is the U.S. government's official web portal to all federal, state and local government web resources and services.